Location: Unspecified
(49.8670°N, 0.0000°E)
Time: 19:11:37
(UTC+00:00)

Courier 1B Rocket - Pass Details

Date: 26 June 2019
Orbit: 920 x 1202 km, 28.3° (Epoch: 24 August)

Event Time Altitude Azimuth Distance (km) Brightness Sun altitude
Rises 03:28:26 0° 219° (SW) 3,922 - -3.8°
Exits shadow 03:29:53 - 213° (SSW) 3,582 7.3 -3.6°
Reaches altitude 10° 03:34:44 10° 180° (S) 2,871 7.1 -3.0°
Maximum altitude 03:35:28 10° 174° (S) 2,847 7.1 -2.9°
Drops below altitude 10° 03:36:11 10° 167° (SSE) 2,849 7.2 -2.9°
Sets 03:42:10 0° 127° (SE) 3,709 8.2 -2.1°
